• Em Portugal
  • Lista de países
  • Para 7 dias
  • Temperatura da água
  • Mapas de satélite
  • Mapa do tempo
  • Widgets de tempo
  • user-avatar
    Iniciar Sessão

    Previsão horária em Sololá

    Hoje, 13 Dezembro, Quarta-feira

    Tempo Temperatura Precipitação Vento Pressão Humidade
    00:00 +10°C° 0 mm 1 m/s 595 mmHg 80%
    01:00 +9°C° 0 mm 1 m/s 595 mmHg 80%
    02:00 +9°C° 0 mm 1 m/s 594 mmHg 81%
    03:00 +9°C° 0 mm 1 m/s 594 mmHg 81%
    04:00 +9°C° 0 mm 1 m/s 594 mmHg 80%
    05:00 +9°C° 0 mm 1 m/s 594 mmHg 79%
    06:00 +8°C° 0 mm 1 m/s 594 mmHg 79%
    07:00 +11°C° 0 mm 1 m/s 596 mmHg 72%
    08:00 +13°C° 0 mm 1 m/s 597 mmHg 65%
    09:00 +16°C° 0 mm 1 m/s 598 mmHg 58%
    10:00 +18°C° 0 mm 1 m/s 599 mmHg 54%
    11:00 +20°C° 0 mm 1 m/s 599 mmHg 50%
    12:00 +20°C° 0 mm 2 m/s 599 mmHg 46%
    13:00 +19°C° 0 mm 2 m/s 599 mmHg 51%
    14:00 +19°C° 0 mm 2 m/s 598 mmHg 55%
    15:00 +18°C° 0 mm 2 m/s 597 mmHg 59%
    16:00 +16°C° 0 mm 1 m/s 596 mmHg 68%
    17:00 +14°C° 0 mm 1 m/s 595 mmHg 78%
    18:00 +12°C° 0 mm 1 m/s 594 mmHg 88%
    19:00 +12°C° 0 mm 1 m/s 595 mmHg 87%
    20:00 +11°C° 0 mm 1 m/s 595 mmHg 85%
    21:00 +11°C° 0 mm 1 m/s 595 mmHg 84%
    22:00 +11°C° 0 mm 1 m/s 595 mmHg 83%
    23:00 +10°C° 0 mm 1 m/s 595 mmHg 83%

    Amanhã, 14 Dezembro, Quinta-feira

    Tempo Temperatura Precipitação Vento Pressão Humidade
    00:00 +10°C° 0 mm 1 m/s 595 mmHg 82%
    01:00 +10°C° 0 mm 1 m/s 594 mmHg 83%
    02:00 +10°C° 0 mm 1 m/s 594 mmHg 83%
    03:00 +10°C° 0 mm 1 m/s 594 mmHg 84%
    04:00 +10°C° 0 mm 1 m/s 593 mmHg 84%
    05:00 +10°C° 0 mm 1 m/s 593 mmHg 85%
    06:00 +10°C° 0 mm 1 m/s 593 mmHg 85%
    07:00 +13°C° 0 mm 1 m/s 595 mmHg 76%
    08:00 +16°C° 0 mm 1 m/s 596 mmHg 67%
    09:00 +19°C° 0 mm 1 m/s 598 mmHg 58%
    10:00 +21°C° 0 mm 1 m/s 598 mmHg 53%
    11:00 +22°C° 0 mm 1 m/s 598 mmHg 49%
    12:00 +23°C° 0 mm 2 m/s 598 mmHg 45%
    13:00 +23°C° 0 mm 2 m/s 598 mmHg 48%
    14:00 +21°C° 0 mm 2 m/s 597 mmHg 50%
    15:00 +21°C° 0 mm 2 m/s 596 mmHg 53%
    16:00 +18°C° 0 mm 2 m/s 595 mmHg 64%
    17:00 +16°C° 0 mm 1 m/s 595 mmHg 75%
    18:00 +14°C° 0 mm 1 m/s 594 mmHg 85%
    19:00 +13°C° 0 mm 1 m/s 594 mmHg 88%
    20:00 +13°C° 0 mm 1 m/s 595 mmHg 90%
    21:00 +12°C° 0 mm 1 m/s 595 mmHg 93%
    22:00 +12°C° 0 mm 1 m/s 595 mmHg 92%
    23:00 +12°C° 0 mm 1 m/s 595 mmHg 91%

    Depois de amanhã, 15 Dezembro, Sexta-feira

    Tempo Temperatura Precipitação Vento Pressão Humidade
    00:00 +12°C° 0 mm 1 m/s 594 mmHg 90%
    01:00 +12°C° 0 mm 1 m/s 594 mmHg 89%
    02:00 +12°C° 0 mm 1 m/s 594 mmHg 89%
    03:00 +11°C° 0 mm 1 m/s 593 mmHg 88%
    04:00 +11°C° 0 mm 1 m/s 593 mmHg 88%
    05:00 +11°C° 0 mm 1 m/s 594 mmHg 88%
    06:00 +11°C° 0 mm 1 m/s 594 mmHg 88%
    07:00 +14°C° 0 mm 1 m/s 595 mmHg 79%
    08:00 +16°C° 0 mm 1 m/s 596 mmHg 70%
    09:00 +19°C° 0 mm 1 m/s 598 mmHg 61%
    10:00 +20°C° 0 mm 1 m/s 598 mmHg 57%
    11:00 +21°C° 0 mm 1 m/s 598 mmHg 54%
    12:00 +21°C° 0 mm 2 m/s 598 mmHg 50%
    13:00 +21°C° 0 mm 2 m/s 597 mmHg 53%
    14:00 +20°C° 0 mm 2 m/s 596 mmHg 55%
    15:00 +20°C° 0 mm 2 m/s 596 mmHg 58%
    16:00 +18°C° 0 mm 2 m/s 595 mmHg 66%
    17:00 +16°C° 0 mm 1 m/s 594 mmHg 74%
    18:00 +14°C° 0 mm 1 m/s 594 mmHg 82%
    19:00 +13°C° 0 mm 1 m/s 594 mmHg 83%
    20:00 +13°C° 0 mm 1 m/s 595 mmHg 85%
    21:00 +12°C° 0 mm 1 m/s 595 mmHg 86%
    22:00 +12°C° 0 mm 1 m/s 595 mmHg 85%
    23:00 +12°C° 0 mm 1 m/s 595 mmHg 85%

    16 Dezembro, Sábado

    Tempo Temperatura Precipitação Vento Pressão Humidade
    00:00 +12°C° 0 mm 1 m/s 595 mmHg 85%
    01:00 +12°C° 0 mm 1 m/s 595 mmHg 85%
    02:00 +13°C° 0 mm 1 m/s 594 mmHg 85%
    03:00 +13°C° 0 mm 1 m/s 594 mmHg 84%
    04:00 +13°C° 0 mm 1 m/s 594 mmHg 84%
    05:00 +12°C° 0 mm 1 m/s 594 mmHg 84%
    06:00 +12°C° 0 mm 1 m/s 594 mmHg 84%
    07:00 +14°C° 0 mm 1 m/s 596 mmHg 78%
    08:00 +16°C° 0 mm 1 m/s 597 mmHg 72%
    09:00 +19°C° 0 mm 1 m/s 598 mmHg 66%
    10:00 +19°C° 0,1 mm 1 m/s 598 mmHg 63%
    11:00 +19°C° 0,1 mm 2 m/s 598 mmHg 60%
    12:00 +20°C° 0,1 mm 2 m/s 598 mmHg 57%
    13:00 +19°C° 0 mm 2 m/s 597 mmHg 58%
    14:00 +19°C° 0 mm 2 m/s 596 mmHg 59%
    15:00 +18°C° 0 mm 2 m/s 595 mmHg 60%
    16:00 +17°C° 0 mm 2 m/s 595 mmHg 67%
    17:00 +15°C° 0 mm 1 m/s 594 mmHg 75%
    18:00 +13°C° 0 mm 1 m/s 594 mmHg 82%
    19:00 +13°C° 0 mm 1 m/s 594 mmHg 82%
    20:00 +13°C° 0 mm 1 m/s 595 mmHg 82%
    21:00 +12°C° 0 mm 1 m/s 595 mmHg 81%
    22:00 +12°C° 0,1 mm 1 m/s 595 mmHg 81%
    23:00 +12°C° 0,1 mm 1 m/s 595 mmHg 82%

    17 Dezembro, Domingo

    Tempo Temperatura Precipitação Vento Pressão Humidade
    00:00 +12°C° 0,1 mm 1 m/s 595 mmHg 82%
    01:00 +12°C° 0,1 mm 1 m/s 594 mmHg 82%
    02:00 +12°C° 0,1 mm 1 m/s 594 mmHg 82%
    03:00 +12°C° 0,1 mm 1 m/s 594 mmHg 82%
    04:00 +12°C° 0,1 mm 1 m/s 594 mmHg 82%
    05:00 +11°C° 0,1 mm 1 m/s 594 mmHg 82%
    06:00 +11°C° 0,1 mm 1 m/s 594 mmHg 82%
    07:00 +14°C° 0 mm 1 m/s 595 mmHg 74%
    08:00 +16°C° 0 mm 1 m/s 597 mmHg 67%
    09:00 +19°C° 0 mm 1 m/s 598 mmHg 59%
    10:00 +21°C° 0 mm 1 m/s 598 mmHg 52%
    11:00 +21°C° 0 mm 2 m/s 598 mmHg 45%
    12:00 +23°C° 0 mm 2 m/s 598 mmHg 38%
    13:00 +23°C° 0 mm 2 m/s 598 mmHg 39%
    14:00 +23°C° 0 mm 2 m/s 597 mmHg 40%
    15:00 +21°C° 0 mm 2 m/s 596 mmHg 41%
    16:00 +19°C° 0 mm 2 m/s 595 mmHg 51%
    17:00 +16°C° 0 mm 1 m/s 594 mmHg 61%
    18:00 +14°C° 0 mm 1 m/s 594 mmHg 72%
    19:00 +13°C° 0 mm 1 m/s 594 mmHg 71%
    20:00 +13°C° 0 mm 1 m/s 594 mmHg 69%
    21:00 +12°C° 0 mm 1 m/s 594 mmHg 68%
    22:00 +12°C° 0 mm 1 m/s 594 mmHg 68%
    23:00 +12°C° 0 mm 1 m/s 594 mmHg 68%

    18 Dezembro, Segunda-feira

    Tempo Temperatura Precipitação Vento Pressão Humidade
    00:00 +12°C° 0 mm 1 m/s 594 mmHg 68%
    01:00 +12°C° 0 mm 1 m/s 594 mmHg 69%
    02:00 +11°C° 0 mm 1 m/s 593 mmHg 71%
    03:00 +11°C° 0 mm 1 m/s 593 mmHg 72%
    04:00 +11°C° 0 mm 1 m/s 593 mmHg 74%
    05:00 +11°C° 0 mm 1 m/s 593 mmHg 75%
    06:00 +11°C° 0 mm 1 m/s 594 mmHg 76%
    07:00 +14°C° 0 mm 1 m/s 595 mmHg 69%
    08:00 +16°C° 0 mm 1 m/s 597 mmHg 62%
    09:00 +20°C° 0 mm 1 m/s 598 mmHg 55%
    10:00 +21°C° 0 mm 1 m/s 598 mmHg 52%
    11:00 +21°C° 0 mm 2 m/s 598 mmHg 49%
    12:00 +23°C° 0 mm 2 m/s 598 mmHg 47%
    13:00 +21°C° 0 mm 2 m/s 597 mmHg 49%
    14:00 +21°C° 0 mm 2 m/s 597 mmHg 52%
    15:00 +20°C° 0 mm 2 m/s 596 mmHg 55%
    16:00 +18°C° 0 mm 2 m/s 595 mmHg 63%
    17:00 +16°C° 0 mm 1 m/s 595 mmHg 72%
    18:00 +14°C° 0 mm 1 m/s 594 mmHg 80%
    19:00 +14°C° 0 mm 1 m/s 595 mmHg 80%
    20:00 +13°C° 0 mm 1 m/s 595 mmHg 81%
    21:00 +13°C° 0 mm 1 m/s 595 mmHg 81%
    22:00 +13°C° 0 mm 1 m/s 595 mmHg 81%
    23:00 +13°C° 0 mm 1 m/s 595 mmHg 81%
    Mostrar mais